sat.trackr.live / text

‹ back to catalog

STARLINK-35917

NORAD 66503 · 2025-263U

PAYLOAD ACTIVE UNKNOWN

§ Identity

Operator
Country
US
Launch date
2025-11-15
Launch site
AFETR
Launch vehicle
Mass (kg)
RCS (m²)

Purposes: comms

External: N2YO · Heavens-Above · Gunter

§ Orbital elements

Epoch: 2026-09-19T22:17:46.685184Z

Period
94.27 min
Inclination
43.0009°
Eccentricity
0.0001590
Mean motion
15.27595746 rev/d
Perigee alt
481.9 km
Apogee alt
484.1 km
Semi-major
6,861.1 km
B*
6.3051e-4
RAAN
333.8751°
Arg perigee
264.8222°
Mean anomaly
95.2449°
Rev number
4,860

§ Raw data

STARLINK-359171 66503U 25263U   26262.92901256  .00017137  00000+0  63051-3 0  99962 66503  43.0009 333.8751 0001590 264.8222  95.2449 15.27595746 48601

JSON: /api/v1/satellites/66503 · /tle

For live sub-satellite position, see the globe view (requires WebGL).

§ Visibility from observer

Set your observer location to see the next 7 days of passes ≥ 10°. The values pass through the URL so the page stays shareable.

No JS? Fill the form by hand. The geolocation button needs JavaScript.